Time,TemperatureF,DewpointF,PressureIn,WindDirection,WindDirectionDegrees,WindSpeedMPH,WindSpeedGustMPH,Humidity,HourlyPrecipIn,Conditions,Clouds,dailyrainin,SoftwareType,DateUTC
2013-09-24 00:00:00,43.0,39.0,29.98,West,273,1.0,9.0,84,0.00,,,0.00,weatherlink.com 1.10,2013-09-24 04:00:00,
2013-09-24 00:15:00,43.1,39.0,29.98,WSW,256,6.0,9.0,84,0.00,,,0.00,weatherlink.com 1.10,2013-09-24 04:15:00,
2013-09-24 00:30:00,43.5,39.0,29.98,WSW,238,6.0,7.0,83,0.00,,,0.00,weatherlink.com 1.10,2013-09-24 04:30:00,
2013-09-24 00:45:00,43.3,39.0,29.98,WNW,300,8.0,8.0,84,0.00,,,0.00,weatherlink.com 1.10,2013-09-24 04:45:00,
2013-09-24 01:00:00,42.7,39.0,29.98,West,276,2.0,4.0,85,0.00,,,0.00,weatherlink.com 1.10,2013-09-24 05:00:00,
2013-09-24 01:15:00,42.7,39.0,29.98,West,278,1.0,9.0,85,0.00,,,0.00,weatherlink.com 1.10,2013-09-24 05:15:00,
2013-09-24 01:30:00,42.4,39.0,29.98,West,280,2.0,5.0,86,0.00,,,0.00,weatherlink.com 1.10,2013-09-24 05:30:00,
2013-09-24 01:45:00,42.4,39.0,29.98,West,270,0.0,5.0,86,0.00,,,0.00,weatherlink.com 1.10,2013-09-24 05:45:00,
2013-09-24 02:00:00,42.2,39.0,29.97,West,274,1.0,4.0,87,0.00,,,0.00,weatherlink.com 1.10,2013-09-24 06:00:00,
2013-09-24 02:15:00,42.4,39.0,29.97,West,276,0.0,4.0,87,0.00,,,0.00,weatherlink.com 1.10,2013-09-24 06:15:00,
2013-09-24 02:30:00,43.5,39.0,29.97,WSW,253,1.0,5.0,85,0.00,,,0.00,weatherlink.com 1.10,2013-09-24 06:30:00,
2013-09-24 02:45:00,43.7,40.0,29.96,WSW,256,1.0,5.0,86,0.00,,,0.00,weatherlink.com 1.10,2013-09-24 06:45:00,
2013-09-24 03:00:00,44.1,40.0,29.96,WNW,284,0.0,7.0,84,0.00,,,0.00,weatherlink.com 1.10,2013-09-24 07:00:00,
2013-09-24 03:15:00,44.5,40.0,29.95,WNW,283,4.0,8.0,83,0.00,,,0.00,weatherlink.com 1.10,2013-09-24 07:15:00,
2013-09-24 03:30:00,44.4,40.0,29.95,West,262,1.0,7.0,83,0.00,,,0.00,weatherlink.com 1.10,2013-09-24 07:30:00,
2013-09-24 03:45:00,44.0,40.0,29.95,West,269,4.0,6.0,85,0.00,,,0.00,weatherlink.com 1.10,2013-09-24 07:45:00,
2013-09-24 04:00:00,44.3,40.0,29.95,West,281,3.0,8.0,84,0.00,,,0.00,weatherlink.com 1.10,2013-09-24 08:00:00,
2013-09-24 04:15:00,44.0,40.0,29.95,WNW,294,2.0,4.0,85,0.00,,,0.00,weatherlink.com 1.10,2013-09-24 08:15:00,
2013-09-24 04:30:00,43.8,40.0,29.95,West,273,2.0,6.0,86,0.00,,,0.00,weatherlink.com 1.10,2013-09-24 08:30:00,
2013-09-24 04:45:00,44.1,40.0,29.94,WSW,250,6.0,6.0,84,0.00,,,0.00,weatherlink.com 1.10,2013-09-24 08:45:00,
2013-09-24 05:00:00,44.3,39.0,29.95,WNW,300,2.0,8.0,82,0.00,,,0.00,weatherlink.com 1.10,2013-09-24 09:00:00,
2013-09-24 05:15:00,43.8,39.0,29.94,South,185,2.0,6.0,83,0.00,,,0.00,weatherlink.com 1.10,2013-09-24 09:15:00,
2013-09-24 05:30:00,44.0,39.0,29.93,WNW,291,0.0,7.0,82,0.00,,,0.00,weatherlink.com 1.10,2013-09-24 09:30:00,
2013-09-24 05:45:00,43.9,38.0,29.94,WSW,255,2.0,7.0,81,0.00,,,0.00,weatherlink.com 1.10,2013-09-24 09:45:00,
2013-09-24 06:01:00,42.9,38.0,29.93,East,98,4.0,5.0,83,0.00,,,0.00,weatherlink.com 1.10,2013-09-24 10:01:00,
2013-09-24 06:16:00,42.5,38.0,29.94,SE,136,0.0,4.0,84,0.00,,,0.00,weatherlink.com 1.10,2013-09-24 10:16:00,
2013-09-24 06:31:00,42.4,38.0,29.93,NNE,30,0.0,4.0,85,0.00,,,0.00,weatherlink.com 1.10,2013-09-24 10:31:00,
2013-09-24 06:46:00,42.1,38.0,29.94,WSW,238,1.0,2.0,85,0.00,,,0.00,weatherlink.com 1.10,2013-09-24 10:46:00,
2013-09-24 07:01:00,42.7,39.0,29.94,ESE,123,0.0,4.0,85,0.00,,,0.00,weatherlink.com 1.10,2013-09-24 11:01:00,
2013-09-24 07:16:00,42.5,39.0,29.94,NE,40,2.0,2.0,87,0.00,,,0.00,weatherlink.com 1.10,2013-09-24 11:16:00,
2013-09-24 07:31:00,43.6,39.0,29.94,WSW,248,1.0,4.0,84,0.00,,,0.00,weatherlink.com 1.10,2013-09-24 11:31:00,
2013-09-24 07:46:00,44.8,39.0,29.93,NNW,342,2.0,5.0,81,0.00,,,0.00,weatherlink.com 1.10,2013-09-24 11:46:00,
2013-09-24 08:01:00,46.3,40.0,29.93,North,350,1.0,4.0,80,0.00,,,0.00,weatherlink.com 1.10,2013-09-24 12:01:00,
2013-09-24 08:16:00,47.8,41.0,29.93,East,100,0.0,4.0,76,0.00,,,0.00,weatherlink.com 1.10,2013-09-24 12:16:00,
2013-09-24 08:31:00,47.8,40.0,29.92,WNW,292,5.0,9.0,75,0.00,,,0.00,weatherlink.com 1.10,2013-09-24 12:31:00,
2013-09-24 08:46:00,48.2,40.0,29.92,NW,307,3.0,10.0,74,0.00,,,0.00,weatherlink.com 1.10,2013-09-24 12:46:00,
2013-09-24 09:01:00,48.6,40.0,29.92,WNW,285,7.0,12.0,73,0.00,,,0.00,weatherlink.com 1.10,2013-09-24 13:01:00,
2013-09-24 09:16:00,49.4,41.0,29.92,WSW,253,4.0,8.0,73,0.00,,,0.00,weatherlink.com 1.10,2013-09-24 13:16:00,
2013-09-24 09:31:00,49.7,41.0,29.91,NNW,327,4.0,14.0,72,0.00,,,0.00,weatherlink.com 1.10,2013-09-24 13:31:00,
2013-09-24 09:46:00,50.5,41.0,29.90,SW,231,2.0,10.0,69,0.00,,,0.00,weatherlink.com 1.10,2013-09-24 13:46:00,
2013-09-24 10:01:00,51.2,41.0,29.89,West,269,3.0,12.0,68,0.00,,,0.00,weatherlink.com 1.10,2013-09-24 14:01:00,
2013-09-24 10:16:00,51.8,41.0,29.90,WNW,301,4.0,10.0,68,0.00,,,0.00,weatherlink.com 1.10,2013-09-24 14:16:00,
2013-09-24 10:31:00,52.3,43.0,29.89,West,276,2.0,15.0,70,0.00,,,0.00,weatherlink.com 1.10,2013-09-24 14:31:00,
2013-09-24 10:46:00,53.3,43.0,29.88,West,277,5.0,14.0,67,0.00,,,0.00,weatherlink.com 1.10,2013-09-24 14:46:00,
2013-09-24 11:01:00,53.7,42.0,29.88,WSW,245,2.0,14.0,65,0.00,,,0.00,weatherlink.com 1.10,2013-09-24 15:01:00,
2013-09-24 11:16:00,54.0,42.0,29.86,SW,228,9.0,15.0,64,0.00,,,0.00,weatherlink.com 1.10,2013-09-24 15:16:00,
2013-09-24 11:31:00,55.1,43.0,29.87,WNW,300,5.0,12.0,64,0.00,,,0.00,weatherlink.com 1.10,2013-09-24 15:31:00,
2013-09-24 11:46:00,55.7,43.0,29.88,WNW,300,5.0,15.0,63,0.00,,,0.00,weatherlink.com 1.10,2013-09-24 15:46:00,
2013-09-24 12:01:00,56.3,43.0,29.88,NNW,340,6.0,15.0,62,0.00,,,0.00,weatherlink.com 1.10,2013-09-24 16:01:00,
2013-09-24 12:17:00,57.5,43.0,29.87,SW,236,4.0,12.0,59,0.00,,,0.00,weatherlink.com 1.10,2013-09-24 16:17:00,
2013-09-24 12:32:00,57.9,44.0,29.86,West,274,5.0,10.0,60,0.00,,,0.00,weatherlink.com 1.10,2013-09-24 16:32:00,
2013-09-24 12:47:00,58.7,43.0,29.85,West,263,2.0,10.0,56,0.00,,,0.00,weatherlink.com 1.10,2013-09-24 16:47:00,
2013-09-24 13:02:00,59.5,43.0,29.84,NW,318,1.0,8.0,54,0.00,,,0.00,weatherlink.com 1.10,2013-09-24 17:02:00,
2013-09-24 13:17:00,60.1,43.0,29.85,NNE,12,5.0,9.0,53,0.00,,,0.00,weatherlink.com 1.10,2013-09-24 17:17:00,
2013-09-24 13:32:00,60.5,45.0,29.84,West,280,8.0,10.0,56,0.00,,,0.00,weatherlink.com 1.10,2013-09-24 17:32:00,
2013-09-24 13:47:00,60.8,43.0,29.85,WSW,249,11.0,11.0,52,0.00,,,0.00,weatherlink.com 1.10,2013-09-24 17:47:00,
2013-09-24 14:02:00,61.3,44.0,29.84,West,278,4.0,10.0,53,0.00,,,0.00,weatherlink.com 1.10,2013-09-24 18:02:00,
2013-09-24 14:17:00,61.3,44.0,29.83,West,277,2.0,10.0,53,0.00,,,0.00,weatherlink.com 1.10,2013-09-24 18:17:00,
2013-09-24 14:32:00,61.5,44.0,29.82,West,276,5.0,14.0,53,0.00,,,0.00,weatherlink.com 1.10,2013-09-24 18:32:00,
2013-09-24 14:47:00,61.7,44.0,29.82,WSW,256,1.0,11.0,52,0.00,,,0.00,weatherlink.com 1.10,2013-09-24 18:47:00,
2013-09-24 15:02:00,61.9,44.0,29.83,West,281,2.0,10.0,52,0.00,,,0.00,weatherlink.com 1.10,2013-09-24 19:02:00,
2013-09-24 15:17:00,62.4,45.0,29.82,North,355,4.0,9.0,54,0.00,,,0.00,weatherlink.com 1.10,2013-09-24 19:17:00,
2013-09-24 15:32:00,62.0,44.0,29.81,WSW,250,0.0,12.0,53,0.00,,,0.00,weatherlink.com 1.10,2013-09-24 19:32:00,
2013-09-24 15:47:00,62.5,43.0,29.82,West,264,4.0,7.0,50,0.00,,,0.00,weatherlink.com 1.10,2013-09-24 19:47:00,
2013-09-24 16:02:00,62.1,42.0,29.82,NW,304,4.0,13.0,48,0.00,,,0.00,weatherlink.com 1.10,2013-09-24 20:02:00,
2013-09-24 16:17:00,62.0,43.0,29.83,NW,314,3.0,14.0,50,0.00,,,0.00,weatherlink.com 1.10,2013-09-24 20:17:00,
2013-09-24 16:32:00,62.0,44.0,29.83,WSW,250,5.0,9.0,52,0.00,,,0.00,weatherlink.com 1.10,2013-09-24 20:32:00,
2013-09-24 16:47:00,61.9,44.0,29.83,WNW,294,1.0,9.0,53,0.00,,,0.00,weatherlink.com 1.10,2013-09-24 20:47:00,
2013-09-24 17:02:00,61.9,44.0,29.83,SSW,195,2.0,6.0,53,0.00,,,0.00,weatherlink.com 1.10,2013-09-24 21:02:00,
2013-09-24 17:17:00,61.1,44.0,29.84,West,274,1.0,8.0,53,0.00,,,0.00,weatherlink.com 1.10,2013-09-24 21:17:00,
2013-09-24 17:32:00,60.7,43.0,29.84,West,272,1.0,8.0,53,0.00,,,0.00,weatherlink.com 1.10,2013-09-24 21:32:00,
2013-09-24 18:02:00,58.8,43.0,29.85,West,260,1.0,6.0,56,0.00,,,0.00,weatherlink.com 1.10,2013-09-24 22:02:00,
2013-09-24 18:32:00,55.7,43.0,29.87,East,79,0.0,1.0,62,0.00,,,0.00,weatherlink.com 1.10,2013-09-24 22:32:00,
2013-09-24 18:47:00,53.3,44.0,29.86,West,280,2.0,2.0,70,0.00,,,0.00,weatherlink.com 1.10,2013-09-24 22:47:00,
2013-09-24 19:02:00,53.3,42.0,29.87,West,270,2.0,5.0,65,0.00,,,0.00,weatherlink.com 1.10,2013-09-24 23:02:00,
2013-09-24 19:17:00,53.3,42.0,29.88,NNW,328,0.0,4.0,65,0.00,,,0.00,weatherlink.com 1.10,2013-09-24 23:17:00,
2013-09-24 19:32:00,52.5,44.0,29.89,SE,141,1.0,2.0,74,0.00,,,0.00,weatherlink.com 1.10,2013-09-24 23:32:00,
2013-09-24 19:47:00,50.1,43.0,29.89,SE,139,0.0,0.0,77,0.00,,,0.00,weatherlink.com 1.10,2013-09-24 23:47:00,
2013-09-24 20:02:00,49.1,44.0,29.89,South,181,0.0,1.0,81,0.00,,,0.00,weatherlink.com 1.10,2013-09-25 00:02:00,
2013-09-24 20:17:00,47.8,43.0,29.90,SSE,150,0.0,1.0,84,0.00,,,0.00,weatherlink.com 1.10,2013-09-25 00:17:00,
2013-09-24 20:32:00,47.4,43.0,29.90,West,266,2.0,2.0,86,0.00,,,0.00,weatherlink.com 1.10,2013-09-25 00:32:00,
2013-09-24 20:47:00,49.0,43.0,29.90,West,263,0.0,4.0,80,0.00,,,0.00,weatherlink.com 1.10,2013-09-25 00:47:00,
2013-09-24 21:02:00,49.1,43.0,29.90,West,267,0.0,1.0,79,0.00,,,0.00,weatherlink.com 1.10,2013-09-25 01:02:00,
2013-09-24 21:17:00,48.3,43.0,29.90,South,188,0.0,1.0,83,0.00,,,0.00,weatherlink.com 1.10,2013-09-25 01:17:00,
2013-09-24 21:32:00,46.9,43.0,29.90,SE,136,0.0,1.0,86,0.00,,,0.00,weatherlink.com 1.10,2013-09-25 01:32:00,
2013-09-24 21:47:00,46.1,43.0,29.91,SE,134,0.0,1.0,88,0.00,,,0.00,weatherlink.com 1.10,2013-09-25 01:47:00,
2013-09-24 22:02:00,45.4,43.0,29.90,ESE,121,0.0,0.0,90,0.00,,,0.00,weatherlink.com 1.10,2013-09-25 02:02:00,
2013-09-24 22:17:00,45.0,42.0,29.91,ESE,122,0.0,0.0,90,0.00,,,0.00,weatherlink.com 1.10,2013-09-25 02:17:00,
2013-09-24 22:32:00,44.8,43.0,29.90,West,280,0.0,2.0,92,0.00,,,0.00,weatherlink.com 1.10,2013-09-25 02:32:00,
2013-09-24 22:47:00,46.2,43.0,29.90,WNW,287,1.0,3.0,89,0.00,,,0.00,weatherlink.com 1.10,2013-09-25 02:47:00,
2013-09-24 23:02:00,47.9,43.0,29.90,SW,218,2.0,5.0,84,0.00,,,0.00,weatherlink.com 1.10,2013-09-25 03:02:00,
2013-09-24 23:17:00,48.4,43.0,29.90,West,262,1.0,3.0,82,0.00,,,0.00,weatherlink.com 1.10,2013-09-25 03:17:00,
2013-09-24 23:32:00,48.3,44.0,29.89,SE,139,0.0,1.0,84,0.00,,,0.00,weatherlink.com 1.10,2013-09-25 03:32:00,
2013-09-24 23:47:00,46.7,43.0,29.89,East,98,0.0,0.0,88,0.00,,,0.00,weatherlink.com 1.10,2013-09-25 03:47:00,